Location: Beaumont
(43.9463°N, 0.2860°E)
Time: 07:03:37
(UTC+00:00)

Daily predictions for brighter satellites

Satellite Brightness Start Highest point End
(mag) Time Altitude Azimuth Time Altitude Azimuth Time Altitude Azimuth
NOSS 2-2 (E) 3.5 18:27:04 10° S 18:30:21 40° ESE 18:33:53 10° NE
Tsikada Rocket 4.2 18:25:11 10° N 18:31:21 81° W 18:37:30 10° S
Cosmos 1544 3.4 18:30:20 10° SSW 18:33:59 72° W 18:37:38 10° N
Okean-O 2.9 18:30:53 10° S 18:35:18 76° WSW 18:39:46 10° NNW
USA 116 3.6 18:32:46 10° NNE 18:36:12 53° ESE 18:39:59 10° S
Okean 2 3.4 18:32:27 10° N 18:36:39 75° E 18:40:48 10° SSE
CZ-2C R/B 2.9 18:34:39 10° SW 18:37:08 18° S 18:39:32 10° SE
NOSS 2-2 (D) 3.5 18:35:46 10° S 18:39:02 38° ESE 18:42:30 10° NE
Iridium 4 Rocket 3.5 18:38:33 10° S 18:43:27 90° W 18:48:52 10° N
YAOGAN 1 2.7 18:40:20 10° SSE 18:44:40 84° WSW 18:49:01 10° NNW
CENTAUR R/B 4.1 18:38:01 10° NNW 18:44:51 31° NNE 18:51:58 11° E
Cosmos 1975 2.9 18:40:57 10° S 18:45:02 84° W 18:49:08 10° N
GP-B 4.0 18:42:51 10° N 18:47:12 55° W 18:51:32 10° SSW
H-2A R/B 2.0 18:43:59 10° SSE 18:48:50 59° ENE 18:53:49 10° N
SJ-11-01 4.3 18:44:46 10° SSE 18:49:26 64° ENE 18:54:06 10° N
CZ-4 R/B 2.1 18:45:54 10° S 18:50:04 60° W 18:54:14 10° NNW
Cosmos 1437 2.5 18:48:13 10° N 18:51:13 90° NE 18:54:11 10° S
DMSP B5D1-3 4.4 18:46:38 10° NNE 18:51:45 76° ESE 18:56:50 10° S
ISS -3.6 18:49:51 10° SW 18:53:08 52° SE 18:56:09 12° ENE
USA 238 DEB 4.5 18:50:01 10° NNW 18:56:43 40° NE 19:02:30 15° ESE
USA 238 4.5 18:50:08 10° NNW 18:56:50 40° NE 19:02:35 15° ESE
Cosmos 1842 3.6 18:53:08 10° NNW 18:57:00 67° W 19:00:50 10° S
ARGOS 3.2 18:57:06 10° SSE 19:02:22 61° ENE 19:07:40 10° N
Cosmos 1782 Rocket 4.0 19:00:51 10° SSW 19:05:13 66° W 19:09:40 10° N
Cosmos 1025 Rocket 3.5 19:02:10 10° N 19:06:18 40° ENE 19:10:02 12° SE
CZ-2C R/B 3.2 19:01:54 10° NNE 19:06:59 36° E 19:12:06 10° SSE
Cosmos 1707 2.7 19:05:47 10° N 19:09:36 59° E 19:13:22 10° SSE
Cosmos 2151 Rocket 4.1 19:06:04 10° SSE 19:10:08 37° E 19:14:16 10° NNE
USA 186 2.1 19:13:02 25° SE 19:14:26 41° ENE 19:17:30 10° N
Ariane Rocket 3.2 19:12:56 12° SE 19:17:21 50° ENE 19:22:15 10° N
SJ-6B 3.3 19:16:15 25° ESE 19:17:44 35° ENE 19:21:11 10° N
CZ-2C R/B 3.7 19:13:15 10° S 19:18:22 59° W 19:23:49 10° NNW
Cosmos 1844 4.3 19:14:04 10° SSE 19:19:03 32° ESE 19:24:01 10° NE
FREGAT/IRIS 3.6 19:20:39 24° NE 19:20:39 24° NE 19:22:17 10° N
Cosmos 2263 Rocket 3.3 19:15:40 10° SW 19:20:59 45° WNW 19:26:22 10° NNE
Cosmos 1072 Rocket 4.4 19:15:10 10° S 19:21:22 80° E 19:27:44 10° N
NOSS 2-2 (C) 3.4 19:20:05 10° SW 19:23:33 68° NW 19:27:23 10° NNE
Nadezhda 4 Rocket 4.1 19:17:57 10° N 19:23:56 53° ENE 19:29:17 13° SSE
NOSS 3-2 (A) 4.2 19:17:18 10° NNW 19:24:41 59° NE 19:30:19 22° ESE
MOS 1 4.4 19:21:25 15° SE 19:26:02 55° ENE 19:31:36 10° N
Cosmos 1844 Rocket 2.8 19:22:25 10° S 19:27:41 46° ESE 19:33:00 10° NE
Cosmos 2034 Rocket 4.0 19:21:37 10° S 19:27:51 60° E 19:34:05 10° NNE
USA 102 3.4 19:24:06 19° SSE 19:28:51 71° ENE 19:29:58 37° N
Cosmos 1975 Rocket 4.3 19:25:56 10° NNW 19:30:01 42° W 19:34:05 10° SSW
Cosmos 2298 Rocket 4.0 19:24:53 10° S 19:30:07 64° ESE 19:35:25 10° NNE
SPOT 3 Rocket 4.3 19:32:57 29° E 19:34:24 34° ENE 19:39:00 10° N
Resurs 01 Rocket 2.7 19:42:54 27° ENE 19:42:54 27° ENE 19:46:25 10° N
USA 234 3.4 19:38:28 10° ENE 19:44:49 51° SE 19:51:08 10° SSW
Cosmos 1867 4.0 19:39:57 10° NW 19:45:21 61° WSW 19:49:02 20° SSE
Lacrosse 5 rocket 4.0 19:42:59 10° NW 19:45:44 16° N 19:48:34 10° NNE
MetOp-A 4.0 19:42:59 24° SSE 19:46:18 72° ENE 19:51:39 10° N
Cosmos 1833 Rocket 4.3 19:46:58 10° N 19:50:41 18° NE 19:51:25 17° NE
OBJECT-B 1.9 19:52:33 34° NNE 19:52:33 34° NNE 19:54:39 10° N
Meteor 1-15 Rocket 4.1 19:46:44 10° S 19:52:16 68° E 19:57:56 10° NNE
IRS-1A Rocket 4.4 19:46:57 13° SSE 19:52:17 83° WSW 19:58:11 10° NNW
Cosmos 1626 4.1 19:54:46 10° NNE 19:56:03 18° NNE 19:56:03 18° NNE
NOSS 3-2 (C) 4.1 19:52:05 10° NNW 19:59:31 62° NE 20:03:03 36° ESE
ARIANE 5 R/B 4.3 20:01:02 20° NE 20:01:02 20° NE 20:03:10 10° NNE
Cosmos 2150 Rocket 4.1 19:54:28 10° SSW 19:59:49 79° WNW 20:05:18 10° NNE
Cosmos 1634 Rocket 4.1 19:59:03 40° SE 20:00:30 47° E 20:06:23 10° NNE
DMSP B5D2-2 4.0 19:55:24 10° NNE 20:00:44 88° ESE 20:06:02 10° SSW
Abrixas rocket 3.8 20:01:07 10° WNW 20:03:00 27° NNW 20:03:00 27° NNW
BREEZE-M TANK 2.8 19:54:52 10° WSW 20:03:45 87° SSE 20:04:37 55° E
Okean 2 Rocket 4.5 20:02:26 10° SW 20:06:39 39° WNW 20:10:53 10° N
Cosmos 2285 Rocket 3.9 20:01:20 10° S 20:07:34 70° ESE 20:13:53 10° NNE
Cosmos 1125 Rocket 3.4 20:02:21 10° SSW 20:07:39 83° ESE 20:13:00 10° NNE
Okean 1 Rocket 3.0 20:08:19 72° E 20:08:19 72° E 20:12:42 10° NNE
CZ-2C R/B 3.5 20:13:50 10° SW 20:14:20 12° SW 20:14:20 12° SW
Cosmos 1627 Rocket 4.4 20:11:47 10° N 20:18:10 69° E 20:19:39 53° SE
Resurs 1-3 3.5 20:18:56 86° W 20:18:56 86° W 20:23:20 10° NNW
Cosmos 1805 4.3 20:24:13 40° N 20:24:13 40° N 20:26:50 10° N
Cosmos 1092 Rocket 3.9 20:17:18 10° N 20:23:30 88° W 20:25:37 44° S
Meteor 2-13 Rocket 4.4 20:17:39 10° N 20:23:52 84° W 20:26:06 42° S
Meteor 2-5 Rocket 3.6 20:18:59 10° N 20:24:39 82° ENE 20:25:27 67° SSE
ATLAS 2AS CENTAUR R/B 3.0 20:18:04 10° SSW 20:25:41 54° ESE 20:33:20 10° NE
Cosmos 2195 Rocket 4.3 20:19:26 10° N 20:25:45 86° E 20:27:20 53° SSE
Cosmos 1674 3.6 20:23:35 10° NNW 20:27:00 47° WNW 20:27:00 47° WNW
Cosmos 2026 Rocket 3.9 20:23:21 10° N 20:29:45 79° E 20:30:53 62° SSE
ISS -1.6 20:26:59 10° W 20:29:08 27° NW 20:29:08 27° NW
Milstar 3 Cent rocket 4.4 20:27:47 10° SSW 20:28:03 11° SSW 20:28:03 11° SSW
BREEZE-M DEB (TANK) 4.4 20:28:59 10° WSW 20:32:55 69° NNW 20:48:41 10° ENE
Cosmos 2082 Rocket 3.8 20:28:45 10° N 20:32:16 20° NE 20:32:16 20° NE
Meteor 1-22 Rocket 4.1 20:34:25 76° ESE 20:34:28 76° E 20:40:29 10° NNE
CENTAUR R/B 3.1 20:28:29 10° NW 20:36:41 87° NE 20:39:10 53° SE
CZ-2C R/B 4.5 20:35:49 10° N 20:38:59 45° N 20:38:59 45° N
Cosmos 1428 Rocket 4.4 20:35:07 10° N 20:41:26 90° W 20:42:07 73° S
Cosmos 2279 Rocket 4.3 20:44:35 53° NE 20:44:35 53° NE 20:49:37 10° NNE
ATLAS 3B R/B 3.3 20:37:13 10° NNW 20:43:40 41° NE 20:44:10 41° NE
COSMOS 2406 3.8 20:38:31 10° NNW 20:43:10 46° NNE 20:43:10 46° NNE
Cosmos 2142 Rocket 4.4 20:47:06 75° ENE 20:47:06 75° ENE 20:53:00 10° N
CZ-2C R/B 4.3 20:42:15 10° N 20:47:12 35° WNW 20:52:12 10° SW
Meteor 1-24 Rocket 3.7 20:41:53 10° NNW 20:47:08 80° NW 20:47:08 80° NW
USA 238 DEB 4.2 20:40:55 10° NW 20:48:00 58° WSW 20:49:57 45° SSW
USA 238 4.2 20:41:01 10° NW 20:48:07 58° WSW 20:50:02 46° SSW
Cosmos 1269 Rocket 4.3 20:43:31 10° NNW 20:48:00 63° NNW 20:48:00 63° NNW
Terra 4.1 21:02:36 15° NNE 21:02:36 15° NNE 21:03:39 10° N
Lacrosse 4 Rocket 4.2 21:06:09 10° N 21:06:37 12° N 21:06:37 12° N
Cosmos 1844 Rocket 4.5 21:06:57 10° WSW 21:11:46 29° NW 21:16:37 10° N
Resurs 01 Rocket 3.7 21:20:28 26° WNW 21:20:28 26° WNW 21:23:03 10° NNW
Lacrosse 5 rocket 4.1 21:23:20 10° NNW 21:25:05 16° N 21:25:05 16° N
USA 234 3.7 21:24:44 31° NNE 21:27:52 57° NNW 21:34:14 10° WSW
Cosmos 1833 Rocket 3.9 21:29:44 10° NNW 21:33:07 38° NNW 21:33:07 38° NNW
ATLAS 2AS CENTAUR R/B 3.9 22:09:20 10° WSW 22:16:55 45° NW 22:24:25 10° NNE
Cosmos 2082 Rocket 4.2 22:11:59 10° NNW 22:14:06 24° NNW 22:14:06 24° NNW
ATLAS 3B R/B 4.1 22:27:53 10° NW 22:31:25 31° WNW 22:31:25 31° WNW
